Regional Weather Roundup
Issued by NWS

Home | Current Version | Previous Version | Text Only | Print | Product List | Glossary Off
Versions: 1 2 3 4 5 6 7 8 9 10 11 12 13 14 15 16 17 18 19 20 21 22 23 24 25 26 27 28 29 30 31 32 33 34 35 36 37 38 39 40 41 42 43 44 45 46 47 48 49 50

000
ASUS43 KMPX 280910
RWRMN
WEATHER ROUNDUP FOR MINNESOTA
NATIONAL WEATHER SERVICE TWIN CITIES/CHANHASSEN MN
400 AM CDT FRI APR 28 2017


NOTE: "FAIR" INDICATES FEW OR NO CLOUDS BELOW 12,000 FEET WITH NO
SIGNIFICANT WEATHER AND/OR OBSTRUCTIONS TO VISIBILITY. N/A MEANS
CURRENT SKY AND/OR WEATHER CONDITIONS ARE NOT AVAILABLE.

MNZ060>063-068>070-281000-
   Twin Cities Metro

CITY           SKY/WX    TMP DP  RH WIND       PRES   REMARKS
TWIN CITIES    CLOUDY    36  27  69 W7        29.84R
ST PAUL        CLOUDY    36  29  75 SW7       29.84R
LAKEVILLE      CLOUDY    34  28  80 SW5       29.84R WCI  30
EDEN PRAIRIE   CLOUDY    36  28  73 SW8       29.83R
SOUTH ST PAUL  CLOUDY    36  28  74 W6        29.83R
LAKE ELMO      CLOUDY    36  30  80 W9        29.83R
$$
MNZ001>005-007-008-013>017-022>024-027-028-281000-
   Northwest Minnesota

CITY           SKY/WX    TMP DP  RH WIND       PRES   REMARKS
BEMIDJI        CLOUDY    27  24  89 NW10      29.78R WCI  17
HALLOCK        MOCLDY    32  28  86 NW5       29.86R WCI  27
ROSEAU         CLOUDY    30  25  80 N10       29.82R WCI  21
WARROAD        CLOUDY    28  25  86 NW12G17   29.80R WCI  18
CROOKSTON      CLOUDY    34  30  86 N9        29.86R WCI  26
FOSSTON        CLOUDY    28  25  86 NW8       29.83R WCI  20
DETROIT LAKES  MOCLDY    30  27  86 NW9       29.84R WCI  22
MOORHEAD       CLEAR     30  27  86 NW3       29.88R
PARK RAPIDS    PTCLDY    28  20  71 NW10      29.79R WCI  19
MAHNOMEN       CLOUDY    28  26  90 NW5       29.83R WCI  23
$$
MNZ006-009>011-018-025>026-281000-
   North Central Minnesota

CITY           SKY/WX    TMP DP  RH WIND       PRES   REMARKS
BAUDETTE       LGT SNOW  30  26  85 NW13      29.75R FOG     WCI  20
FLAG ISLAND    MIX PCPN  30  27  86 NW22      29.77R WCI  17
INTL FALLS     LGT SNOW  27  24  89 W8        29.70R VSB 1   WCI  19
WASKISH        CLOUDY    28  25  86 NW12      29.77R WCI  18
BIG FORK       CLOUDY    28  23  80 CALM      29.73R
LONGVILLE      CLOUDY    28  25  86 W8        29.76R WCI  20
GRAND RAPIDS   CLOUDY    28  23  81 NW16      29.75R WCI  16
CRANE LAKE     FLURRIES  25  23  93 W3        29.69R
ORR            FLURRIES  27  21  80 W12       29.66R WCI  16
COOK           CLOUDY    27  23  86 W10       29.69R WCI  17
WALKER         PTSUNNY   27  22  82 W8        29.78R WCI  19
$$
MNZ012-019>021-037-281000-
   Northeast Minnesota

CITY           SKY/WX    TMP DP  RH WIND       PRES   REMARKS
DULUTH         CLOUDY    28  23  81 W12       29.70R WCI  18
ELY            CLOUDY    27  21  80 W13       29.64R WCI  16
HIBBING        CLOUDY    26  22  84 W10       29.70R WCI  16
EVELETH        CLOUDY    28  22  79 W12       29.70R WCI  17
DULUTH HARBOR  CLOUDY    34  27  75 W14       29.75R WCI  24
TWO HARBORS    CLOUDY    30  25  80 W9        29.67R WCI  22
SILVER BAY     CLOUDY    28  25  86 W5        29.65R WCI  23
GRAND MARAIS     N/A     29  25  85 W7        29.65R WCI  22
G MARAIS ARPRT CLOUDY    21  18  86 CALM      29.58R
$$
MNZ029>031-032-039>041-046>048-054>057-064-281000-
   West Central Minnesota

CITY           SKY/WX    TMP DP  RH WIND       PRES   REMARKS
FERGUS FALLS   CLEAR     28  28 100 NW10      29.87R WCI  19
WHEATON        CLEAR     30  25  80 W8        29.89S WCI  23
MORRIS         CLEAR     30  28  93 NW8       29.84S WCI  23
ALEXANDRIA     PTCLDY    32  27  81 NW10      29.83R WCI  24
ELBOW LAKE     FAIR      30  29  95 NW9       29.86R WCI  22
WADENA         CLEAR     27  25  93 W5        29.81R WCI  21
GLENWOOD       CLEAR     30  28  93 W9        29.83R WCI  22
APPLETON       CLEAR     30  28  93 NW6       29.85S WCI  24
BENSON         CLEAR     30  27  86 N6        29.87R WCI  24
ORTONVILLE     CLEAR     34  28  80 NW10      29.86S WCI  26
MADISON        CLEAR     34  30  86 NW6       29.86R WCI  29
WILLMAR        FAIR      34  30  86 W8        29.85R WCI  27
$$
MNZ033>034-036-042>043-049>051-058-059-281000-
   Central Minnesota

CITY           SKY/WX    TMP DP  RH WIND       PRES   REMARKS
ST CLOUD       CLOUDY    34  27  75 W8        29.82R WCI  27
SAUK CENTRE    CLOUDY    32  28  84 NW7       29.83R WCI  26
PAYNESVILLE    CLOUDY    34  31  87 W9        29.83R WCI  27
AITKIN         CLOUDY    30  25  80 W5        29.76R WCI  25
PINE RIVER     CLOUDY    28  23  80 W6        29.82R WCI  22
BRAINERD       CLOUDY    29  22  75 NW12      29.80R WCI  19
STAPLES        CLEAR     27  21  80 NW7       29.81R WCI  19
LONG PRAIRIE   MOCLDY    32  27  80 W8        29.83R WCI  25
LITTLE FALLS   CLEAR     32  23  69 W6        29.82R WCI  26
LITCHFIELD     MOCLDY    36  30  80 W5        29.83R
BUFFALO        CLOUDY    35  29  79 CALM      29.84R
MAPLE LAKE     CLOUDY    37  32  83 W8        29.83R
HUTCHINSON     PTCLDY    35  31  87 W7        29.84S WCI  29
$$
MNZ037-044-045-052-053-281000-
   East Central Minnesota

CITY           SKY/WX    TMP DP  RH WIND       PRES   REMARKS
PRINCETON      CLOUDY    36  27  69 W8        29.81R
MORA           CLOUDY    32  25  74 W7        29.80R WCI  26
CAMBRIDGE      CLOUDY    36  25  64 W8        29.79R
RUSH CITY      CLOUDY    32  25  74 W7        29.80R WCI  26
MOOSE LAKE     CLOUDY    30  27  86 W6        29.74R WCI  24
HINCKLEY       CLOUDY    32  28  86 W6        29.77R WCI  26
CLOQUET        CLOUDY    28  21  74 W8        29.72R WCI  20
MCGREGOR       CLOUDY    30  28  93 W8        29.76R WCI  23
$$
MNZ071>073-080-081-089-090-097-098-281000-
   Southwest Minnesota

CITY           SKY/WX    TMP DP  RH WIND       PRES   REMARKS
MONTEVIDEO     CLEAR     32  28  86 NW5       29.85S WCI  27
GRANITE FALLS  CLEAR     32  30  92 W7        29.87R WCI  26
CANBY          PTCLDY    33  30  88 CALM      29.88R
MARSHALL       MOCLDY    32  28  85 W8        29.86R WCI  25
REDWOOD FALLS  CLEAR     34  27  75 W7        29.84S WCI  28
OLIVIA         CLEAR     32  30  93 W6        29.83S WCI  26
PIPESTONE      CLEAR     28  25  86 NE3       29.83S
WINDOM         CLEAR     27  27 100 CALM      29.85S
WORTHINGTON    CLEAR     28  26  92 CALM      29.85S
JACKSON        CLEAR     28  27  93 S6        29.86R WCI  22
TRACY          CLEAR     31  28  90 SW7       29.86R WCI  24
SLAYTON        CLEAR     26  25  94 CALM      29.85S
$$
MNZ065>067-074>077-082>085-091>093-281000-
   South Central Minnesota

CITY           SKY/WX    TMP DP  RH WIND       PRES   REMARKS
MANKATO        PTCLDY    32  28  85 SW8       29.85R WCI  25
NEW ULM        MOCLDY    30  27  86 SW7       29.85R WCI  23
ST JAMES       CLEAR     30  27  86 SW6       29.86S WCI  24
FAIRMONT       CLEAR     28  27  96 SW7       29.86R WCI  21
GLENCOE        CLOUDY    36  33  88 W3        29.83S
FARIBAULT      CLOUDY    34  30  86 S5        29.85R WCI  30
OWATONNA       PTCLDY    30  28  93 SW7       29.85R WCI  23
WASECA         PTCLDY    32  30  93 S3        29.87R
ALBERT LEA     CLEAR     30  27  86 S3        29.86R
$$
MNZ078>079-086>088-094>096-281000-
   Southeast Minnesota

CITY           SKY/WX    TMP DP  RH WIND       PRES   REMARKS
ROCHESTER      CLEAR     30  27  88 W7        29.84R WCI  23
RED WING       CLOUDY    36  27  69 W6        29.83S
STANTON        CLOUDY    35  30  83 SW5       29.83S WCI  31
DODGE CENTER   CLEAR     30  27  86 SW7       29.84R WCI  23
WINONA         CLEAR     34  28  80 W5        29.86R WCI  30
AUSTIN         CLEAR     28  27  93 SW6       29.85S WCI  22
PRESTON        CLEAR     29  24  82 W7        29.86R WCI  22
$$
ABBREVIATIONS USED IN REMARKS
   TC - TEMPERATURES IN CELSIUS
  WCI - WIND CHILL INDEX
   HX - HEAT INDEX
  VSB - VISIBILITY
$$



USA.gov is the U.S. government's official web portal to all federal, state and local government web resources and services.